This demonstration page uses our WeatherBlox Daily Observations layout. Learn more.

Left ArrowRight Arrow

Hourly Observations for March 5, 2016

Temp ( °F °C ) Dew Point ( °F °C ) Humidity (%) Winds ( mph kmh ) Pressure ( in mb ) Visibility ( mi km ) Precip ( " mm )
12:53 am 00:53 Partly Cloudy 30 -1.1 26 -3.3 85 85 N N/A 30.19 1022 7 11 N/A
1:53 am 01:53 Partly Cloudy 30 -1.1 27 -2.8 88 88 N N/A 30.20 1023 7 11 N/A
2:16 am 02:16 Mostly Cloudy 31 -0.6 28 -2.2 89 89 N N/A 30.21 1023 7 11 N/A
2:53 am 02:53 Mostly Cloudy 33 0.6 28 -2.2 82 82 N N/A 30.17 1022 9 14 N/A
3:04 am 03:04 Partly Cloudy 32 undefined 27 -2.8 82 82 N N/A 30.18 1022 9 14 N/A
3:28 am 03:28 Mostly Cloudy 32 undefined 28 -2.2 85 85 N N/A 30.18 1022 8 13 N/A
3:53 am 03:53 Cloudy 32 undefined 28 -2.2 85 85 N N/A 30.17 1022 8 13 N/A
4:53 am 04:53 Cloudy 33 0.6 28 -2.2 82 82 N N/A 30.16 1021 8 13 N/A
5:53 am 05:53 Cloudy 34 1.1 28 -2.2 79 79 N N/A 30.14 1021 8 13 N/A
6:50 am 06:50 Cloudy 34 1 30 -1 87 87 SSE 5 7 30.15 1021 8 13 N/A
6:53 am 06:53 Cloudy 34 1.1 30 -1.1 85 85 N N/A 30.14 1021 8 13 N/A
7:53 am 07:53 Cloudy with Haze 35 1.7 30 -1.1 82 82 S 5 7 30.14 1021 6 10 N/A
8:53 am 08:53 Cloudy with Mist and Fog 36 2.2 32 undefined 86 86 VRB 5 7 30.12 1020 6 10 N/A
9:53 am 09:53 Cloudy 39 3.9 33 0.6 79 79 S 6 9 30.12 1020 7 11 N/A
10:53 am 10:53 Cloudy 41 5 34 1.1 76 76 VRB 6 9 30.09 1019 9 14 N/A
11:00 am 11:00 Cloudy 41 5 34 1.1 76 76 SSW 8 13 30.09 1019 9 14 N/A
11:53 am 11:53 Cloudy 40 4.4 33 0.6 77 77 WSW 9 15 30.10 1019 9 14 N/A
12:35 pm 12:35 Cloudy 40 4.4 34 1.1 79 79 SW 6 9 30.09 1019 8 13 N/A
12:53 pm 12:53 Cloudy 40 4.4 35 1.7 83 83 WSW 6 9 30.09 1019 7 11 N/A
1:53 pm 13:53 Cloudy with Mist and Fog 39 3.9 35 1.7 86 86 WSW 8 13 30.08 1019 6 10 N/A
2:53 pm 14:53 Cloudy with Mist and Fog 40 4.4 36 2.2 86 86 WSW 5 7 30.09 1019 6 10 N/A
3:53 pm 15:53 Cloudy with Haze 41 5 35 1.7 79 79 WNW 9 15 30.10 1019 5 8 N/A
4:45 pm 16:45 Cloudy with Haze 41 5 35 1.7 79 79 WNW 8 13 30.09 1019 5 8 N/A
4:53 pm 16:53 Cloudy with Haze 41 5 35 1.7 79 79 WNW 6 9 30.10 1019 5 8 N/A
5:05 pm 17:05 Cloudy with Haze 42 5.6 35 1.7 76 76 WNW 6 9 30.09 1019 5 8 N/A
5:35 pm 17:35 Cloudy with Haze 42 5.6 35 1.7 76 76 W 6 9 30.09 1019 5 8 N/A
5:53 pm 17:53 Cloudy with Haze 42 5.6 35 1.7 76 76 W 7 11 30.12 1020 5 8 N/A
6:37 pm 18:37 Cloudy with Haze 41 5 36 2.2 82 82 W 3 6 30.12 1020 6 10 N/A
6:53 pm 18:53 Cloudy with Haze 41 5 36 2.2 82 82 W 5 7 30.15 1021 6 10 N/A
7:00 pm 19:00 Cloudy with Haze 41 5 36 2.2 82 82 W 3 6 30.15 1021 6 10 N/A
7:53 pm 19:53 Cloudy with Light Rain 39 3.9 37 2.8 93 93 NW 3 6 30.18 1022 5 8 0.02 0.51
8:26 pm 20:26 Cloudy with Mist and Fog 39 3.9 37 2.8 93 93 N N/A 30.18 1022 4 6 N/A
8:53 pm 20:53 Cloudy with Mist and Fog 41 5 37 2.8 86 86 NW 13 20 30.21 1023 6 10 N/A
9:53 pm 21:53 Mostly Cloudy with Mist and Fog 39 3.9 35 1.7 86 86 NNW 8 13 30.24 1024 6 10 N/A
10:12 pm 22:12 Cloudy with Haze 40 4.4 34 1.1 79 79 NNW 7 11 30.21 1023 6 10 N/A
10:53 pm 22:53 Cloudy 39 3.9 35 1.7 86 86 N 8 13 30.25 1024 7 11 N/A
11:53 pm 23:53 Cloudy 38 3.3 33 0.6 83 83 NNW 7 11 30.27 1025 7 11 N/A

Powered by AerisWeather